Tracking 19847 objects as of 15-Sep-2019
HD Live streaming from Space Station
objects crossing your sky now

CZ-4C DEB

Track CZ-4C DEB now!
10-day predictions


NORAD ID: 44211
Int'l Code: 2019-024E
Perigee: 499.8 km
Apogee: 528.5 km
Inclination: 97.5 °
Period: 94.8 minutes
Semi major axis: 6885 km
RCS: Unknown
Launch date: April 29, 2019
Source: People's Republic of China (PRC)
Launch site: Taiyaun Space Center, China (TSC)

Note: This is SATELLITE DEBRIS
aabbcc
Your satellite tracking list
Your tracking list is empty




NASA's NSSDC Master Catalog

Two Line Element Set (TLE):
1 44211U 19024E   19258.49016910  .00001006  00000-0  50252-4 0  9998
2 44211  97.4640 264.4666 0020879 151.1349 209.0970 15.19617061 20947
Source of the keplerian elements: AFSPC